SCP
0 0 0 0 0 0 0 0 0 0 0 -0 0 0 0 0 0 0 -0 -0 0 0 0 0 0 -0 0 0 0 0 -0 -0
0 0 0 0 0 0 0 0 0 0 0 0 0 0 0 0 0 0 0 0 0 0 0 0 0 0 0 -0 -0 -0 -0 -0
0 0 0 0 0 0 0 0 0 0 0 0 0 -0 0 0 0 -0 0 0 0 0 0 0 0 0 0 0 0 0 0 0
0 0 0 0 0 0 0 0 0 0 0 0 0 0 0 0 0 0 0 0 0 0 0 0 0 0 0 0 0 0 0 0
0 0 0 0 0 0 0 0 0 0 0 0 1 1 0 0 0 0 0 0 0 0 0 0 0 0 0 0 0 0 0 0
0 0 0 0 0 0 0 0 0 0 0 0 0 0 -0 0 0 0 0 0 0 0 0 0 0 0 0 0 0 0 0 0
0 0 0 0 0 0 0 0 0 0 0 0 0 -0 0 0 0 0 0 0 0 0 0 0 0 0 0 0 0 0 0 0
0 0 0 0 0 0 0 0 0 0 0 0 0 0 0 0 -0 0 0 0 0 0 0 0 0 0 0 0 0 0 0 0
0 0 0 0 0 0 0 0 0 0 0 0 0 0 0 0 0 0 0 0 0 0 0 0 0 0 0 0 0 0 0 0
0 0 0 0 0 0 0 0 0 0 0 0 0 0 0 0 0 0 -0 0 0 0 0 0 0 0 0 0 0 0 0 0
0 0 0 0 0 0 0 0 0 0 0 0 0 0 0 0 0 0 0 0 0 0 0 0 0 0 0 0 0 0 0 0
0 0 0 0 0 0 0 0 0 0 0 -0 0 0 0 0 -0 0 0 0 0 0 0 0 0 0 0 0 0 0 0 0
0 0 0 0 0 0 0 0 0 0 0 0 0 0 -0 -0 -0 -0 -0 0 0 0 0 0 0 0 0 0 -0 0 0 0
0 0 0 0 0 0 0 0 0 0 0 0 0 -0 -0 -0 -0 -0 -0 0 0 0 0 0 0 0 0 0 0 0 0 0
0 0 0 0 0 0 0 0 -0 -0 -0 0 0 -0 -0 -0 -0 0 0 0 0 0 0 0 0 0 0 0 0 0 0 0
0 0 0 0 -0 0 0 0 0 0 -0 -0 -0 -0 -0 -0 0 0 0 0 0 0 0 0 0 0 0 0 0 0 0 0
0 0 0 0 -0 0 0 0 0 0 0 -0 -0 -0 -0 -0 0 0 0 0 0 0 0 0 0 0 0 0 0 0 0 0
1 0 0 0 0 0 0 1 0 -0 -0 0 -0 -0 -0 0 0 0 0 0 0 0 0 0 0 0 0 0 0 0 0 0
0 0 0 0 -0 0 0 0 0 0 0 -0 0 0 0 0 0 0 0 0 0 0 0 0 0 0 0 0 0 0 0 0
Wind_Speed_500mb
10 11 16 11 10 3 8 2 6 4 7 19 14 4 7 15 27 32 34 34 38 36 24 10 13 20 16 11 16 21 19 8
7 8 7 8 19 9 3 10 11 7 7 13 12 16 10 13 22 24 26 27 25 21 19 14 13 16 17 16 19 28 23 15
8 12 15 8 8 6 5 3 9 10 7 6 8 23 23 20 21 25 23 21 20 23 19 12 16 17 17 27 31 24 15 11
25 2 4 4 5 11 10 10 3 6 9 2 3 20 30 28 27 26 21 24 25 24 18 19 22 22 24 26 21 11 8 15
12 10 6 13 11 12 4 3 15 15 12 6 13 23 25 34 30 23 26 29 29 26 24 25 27 27 28 23 15 12 10 15
20 12 9 14 13 17 22 10 14 21 24 15 23 26 31 33 31 26 28 32 34 34 34 35 34 29 23 16 12 16 17 20
28 27 22 25 19 18 24 22 18 16 23 21 34 38 41 41 34 32 33 34 35 40 39 35 31 25 18 11 7 3 15 21
14 19 19 21 19 20 25 18 22 13 22 9 42 44 44 45 43 42 43 41 39 40 38 34 28 25 20 12 6 12 13 11
12 11 16 16 28 24 16 18 16 20 13 26 38 43 53 53 48 48 47 47 42 38 35 33 30 22 14 5 8 8 6 10
4 18 15 7 2 21 23 9 24 14 12 28 34 42 45 45 48 46 45 43 41 37 37 34 27 18 7 4 8 10 12 13
8 15 4 6 12 18 22 25 29 15 24 33 41 43 33 40 40 44 43 42 39 39 39 33 24 13 3 4 4 3 5 7
7 9 16 12 18 18 6 18 29 30 36 51 53 20 19 48 42 43 44 46 46 43 38 30 23 12 6 4 5 8 13 13
11 9 6 8 16 24 14 13 50 50 58 60 26 8 44 54 44 46 52 49 48 44 39 30 20 12 6 7 10 12 12 14
6 9 15 20 20 19 17 6 47 50 61 52 30 40 62 59 58 62 59 56 52 50 41 31 19 9 8 11 12 11 18 17
13 10 5 44 9 24 16 20 46 58 60 57 55 59 66 67 66 64 61 61 56 47 38 27 17 13 12 14 17 21 18 14
4 12 24 28 41 25 25 24 41 53 74 65 65 66 66 67 68 67 63 61 53 43 34 24 16 14 15 21 24 18 13 10
12 25 21 35 36 27 24 35 46 46 67 71 74 70 73 69 67 65 63 56 47 37 25 19 16 18 21 24 22 14 10 13
8 5 11 9 12 36 31 40 68 66 67 60 71 75 71 69 68 69 64 53 41 31 24 22 22 21 24 27 25 19 20 15
10 9 19 27 16 23 33 38 49 65 89 72 56 68 70 72 70 65 55 43 33 26 24 25 23 24 27 28 23 25 23 15
Wind_Direction_500mb
216 188 196 157 196 98 142 114 233 175 263 259 234 140 59 110 147 166 173 180 194 210 234 217 217 176 204 251 253 219 241 317
143 163 75 246 144 167 207 197 233 190 266 263 182 182 160 154 142 152 161 171 178 190 212 228 206 198 196 189 159 143 140 124
216 197 180 153 175 67 123 269 244 242 229 228 192 172 169 155 147 156 165 169 178 197 207 209 185 187 154 164 159 140 121 65
229 269 354 234 225 215 234 182 219 293 246 80 155 169 154 148 140 137 144 153 161 168 166 173 165 162 162 162 166 138 65 26
202 185 141 222 200 208 181 148 202 221 240 114 141 143 148 147 145 139 139 139 147 152 160 145 136 135 140 142 121 85 38 352
223 224 208 202 198 200 216 208 200 223 239 188 176 159 153 154 148 146 143 141 147 149 142 135 130 120 114 107 71 30 5 342
231 232 215 236 232 197 211 235 221 232 219 240 182 167 164 158 154 148 148 150 151 150 149 145 139 135 133 132 128 309 330 337
240 221 219 239 243 213 227 229 252 256 250 150 161 153 156 161 162 158 157 158 158 155 155 154 154 140 132 112 39 356 349 358
232 193 177 241 235 216 214 220 203 213 227 148 163 165 166 167 168 166 164 163 161 161 159 157 144 137 124 73 3 357 10 47
147 154 222 225 243 222 213 258 200 246 151 170 171 162 167 172 169 171 171 167 163 162 162 156 153 149 140 12 360 26 49 57
192 207 335 205 194 184 189 234 194 182 143 150 144 140 163 182 185 180 176 170 168 169 169 166 166 164 167 318 348 61 55 65
171 199 205 210 188 170 149 251 183 178 161 158 156 162 179 181 178 171 169 173 175 173 173 176 174 176 214 202 167 105 99 90
195 246 255 227 151 145 187 226 178 180 167 165 171 117 157 163 165 170 173 176 175 173 177 178 179 186 141 126 118 117 119 113
165 204 249 161 138 190 211 245 179 173 167 165 137 130 146 157 162 168 170 171 174 174 174 176 173 130 132 138 138 135 126 129
216 213 333 192 285 216 193 180 176 168 165 160 145 146 154 159 162 166 168 168 171 172 170 166 156 142 155 157 149 140 141 142
264 221 237 244 248 271 222 178 176 172 168 163 148 153 157 160 161 163 167 166 167 170 169 169 163 152 155 158 150 149 147 158
264 276 265 261 246 233 212 174 162 164 167 164 156 159 162 160 161 163 164 167 169 169 170 171 172 167 163 166 167 166 155 148
252 339 295 288 324 217 202 173 172 174 175 166 165 164 162 159 164 166 166 165 166 169 176 178 170 168 169 168 166 158 148 146
272 265 278 279 301 203 194 173 165 170 173 164 162 160 164 164 165 165 164 164 170 177 175 170 168 168 164 160 159 152 151 154
Wind_Speed_850mb
10 11 16 11 10 3 8 2 6 4 7 19 14 4 7 15 27 32 34 34 38 36 24 10 13 20 16 11 16 21 19 8
7 8 7 8 19 9 3 10 11 7 7 13 12 16 10 13 22 24 26 27 25 21 19 14 13 16 17 16 19 28 23 15
8 12 15 8 8 6 5 3 9 10 7 6 8 23 23 20 21 25 23 21 20 23 19 12 16 17 17 27 31 24 15 11
25 2 4 4 5 11 10 10 3 6 9 2 3 20 30 28 27 26 21 24 25 24 18 19 22 22 24 26 21 11 8 15
12 10 6 13 11 12 4 3 15 15 12 6 13 23 25 34 30 23 26 29 29 26 24 25 27 27 28 23 15 12 10 15
20 12 9 14 13 17 22 10 14 21 24 15 23 26 31 33 31 26 28 32 34 34 34 35 34 29 23 16 12 16 17 20
28 27 22 25 19 18 24 22 18 16 23 21 34 38 41 41 34 32 33 34 35 40 39 35 31 25 18 11 7 3 15 21
14 19 19 21 19 20 25 18 22 13 22 9 42 44 44 45 43 42 43 41 39 40 38 34 28 25 20 12 6 12 13 11
12 11 16 16 28 24 16 18 16 20 13 26 38 43 53 53 48 48 47 47 42 38 35 33 30 22 14 5 8 8 6 10
4 18 15 7 2 21 23 9 24 14 12 28 34 42 45 45 48 46 45 43 41 37 37 34 27 18 7 4 8 10 12 13
8 15 4 6 12 18 22 25 29 15 24 33 41 43 33 40 40 44 43 42 39 39 39 33 24 13 3 4 4 3 5 7
7 9 16 12 18 18 6 18 29 30 36 51 53 20 19 48 42 43 44 46 46 43 38 30 23 12 6 4 5 8 13 13
11 9 6 8 16 24 14 13 50 50 58 60 26 8 44 54 44 46 52 49 48 44 39 30 20 12 6 7 10 12 12 14
6 9 15 20 20 19 17 6 47 50 61 52 30 40 62 59 58 62 59 56 52 50 41 31 19 9 8 11 12 11 18 17
13 10 5 44 9 24 16 20 46 58 60 57 55 59 66 67 66 64 61 61 56 47 38 27 17 13 12 14 17 21 18 14
4 12 24 28 41 25 25 24 41 53 74 65 65 66 66 67 68 67 63 61 53 43 34 24 16 14 15 21 24 18 13 10
12 25 21 35 36 27 24 35 46 46 67 71 74 70 73 69 67 65 63 56 47 37 25 19 16 18 21 24 22 14 10 13
8 5 11 9 12 36 31 40 68 66 67 60 71 75 71 69 68 69 64 53 41 31 24 22 22 21 24 27 25 19 20 15
10 9 19 27 16 23 33 38 49 65 89 72 56 68 70 72 70 65 55 43 33 26 24 25 23 24 27 28 23 25 23 15
Wind_Direction_850mb
216 188 196 157 196 98 142 114 233 175 263 259 234 140 59 110 147 166 173 180 194 210 234 217 217 176 204 251 253 219 241 317
143 163 75 246 144 167 207 197 233 190 266 263 182 182 160 154 142 152 161 171 178 190 212 228 206 198 196 189 159 143 140 124
216 197 180 153 175 67 123 269 244 242 229 228 192 172 169 155 147 156 165 169 178 197 207 209 185 187 154 164 159 140 121 65
229 269 354 234 225 215 234 182 219 293 246 80 155 169 154 148 140 137 144 153 161 168 166 173 165 162 162 162 166 138 65 26
202 185 141 222 200 208 181 148 202 221 240 114 141 143 148 147 145 139 139 139 147 152 160 145 136 135 140 142 121 85 38 352
223 224 208 202 198 200 216 208 200 223 239 188 176 159 153 154 148 146 143 141 147 149 142 135 130 120 114 107 71 30 5 342
231 232 215 236 232 197 211 235 221 232 219 240 182 167 164 158 154 148 148 150 151 150 149 145 139 135 133 132 128 309 330 337
240 221 219 239 243 213 227 229 252 256 250 150 161 153 156 161 162 158 157 158 158 155 155 154 154 140 132 112 39 356 349 358
232 193 177 241 235 216 214 220 203 213 227 148 163 165 166 167 168 166 164 163 161 161 159 157 144 137 124 73 3 357 10 47
147 154 222 225 243 222 213 258 200 246 151 170 171 162 167 172 169 171 171 167 163 162 162 156 153 149 140 12 360 26 49 57
192 207 335 205 194 184 189 234 194 182 143 150 144 140 163 182 185 180 176 170 168 169 169 166 166 164 167 318 348 61 55 65
171 199 205 210 188 170 149 251 183 178 161 158 156 162 179 181 178 171 169 173 175 173 173 176 174 176 214 202 167 105 99 90
195 246 255 227 151 145 187 226 178 180 167 165 171 117 157 163 165 170 173 176 175 173 177 178 179 186 141 126 118 117 119 113
165 204 249 161 138 190 211 245 179 173 167 165 137 130 146 157 162 168 170 171 174 174 174 176 173 130 132 138 138 135 126 129
216 213 333 192 285 216 193 180 176 168 165 160 145 146 154 159 162 166 168 168 171 172 170 166 156 142 155 157 149 140 141 142
264 221 237 244 248 271 222 178 176 172 168 163 148 153 157 160 161 163 167 166 167 170 169 169 163 152 155 158 150 149 147 158
264 276 265 261 246 233 212 174 162 164 167 164 156 159 162 160 161 163 164 167 169 169 170 171 172 167 163 166 167 166 155 148
252 339 295 288 324 217 202 173 172 174 175 166 165 164 162 159 164 166 166 165 166 169 176 178 170 168 169 168 166 158 148 146
272 265 278 279 301 203 194 173 165 170 173 164 162 160 164 164 165 165 164 164 170 177 175 170 168 168 164 160 159 152 151 154